#Datum;Uhrzeit;WR;Pac;DaySum;Status;WR;Pac;DaySum;Status;Pdc1;Udc;Temp;WR;Pac;DaySum;Status;Pdc1;Udc;Temp;WR;Pac;DaySum;Status;Pdc1;Udc;Temp;WR;Pac;DaySum;Status;Pdc1;Pdc2;Udc1;Udc2;Temp;WR;Pac;DaySum;Status;Pdc1;Pdc2;Udc1;Udc2;Temp;WR;Pac;DaySum;Status;Pdc1;Udc;Temp;WR;Pac;DaySum;Status;Pdc1;Udc;Temp;WR;Pac;DaySum;Status;Pdc1;Udc;Temp
26.11.21;23:55:00;1;1577;21755;0;2;0;964;0;0;0;0;3;0;514;0;0;0;0;4;0;754;0;0;0;0;5;0;2470;0;0;0;0;0;0;6;0;1838;0;0;0;0;0;0;7;0;897;0;0;0;0;8;0;909;0;0;0;0;9;0;425;0;0;0;0
26.11.21;23:50:00;1;475;21631;0;2;0;964;0;0;0;0;3;0;514;0;0;0;0;4;0;754;0;0;0;0;5;0;2470;0;0;0;0;0;0;6;0;1838;0;0;0;0;0;0;7;0;897;0;0;0;0;8;0;909;0;0;0;0;9;0;425;0;0;0;0
26.11.21;23:45:00;1;474;21593;0;2;0;964;0;0;0;0;3;0;514;0;0;0;0;4;0;754;0;0;0;0;5;0;2470;0;0;0;0;0;0;6;0;1838;0;0;0;0;0;0;7;0;897;0;0;0;0;8;0;909;0;0;0;0;9;0;425;0;0;0;0
26.11.21;23:40:00;1;1355;21528;0;2;0;964;0;0;0;0;3;0;514;0;0;0;0;4;0;754;0;0;0;0;5;0;2470;0;0;0;0;0;0;6;0;1838;0;0;0;0;0;0;7;0;897;0;0;0;0;8;0;909;0;0;0;0;9;0;425;0;0;0;0
26.11.21;23:35:00;1;431;21441;0;2;0;964;0;0;0;0;3;0;514;0;0;0;0;4;0;754;0;0;0;0;5;0;2470;0;0;0;0;0;0;6;0;1838;0;0;0;0;0;0;7;0;897;0;0;0;0;8;0;909;0;0;0;0;9;0;425;0;0;0;0
26.11.21;23:30:00;1;371;21405;0;2;0;964;0;0;0;0;3;0;514;0;0;0;0;4;0;754;0;0;0;0;5;0;2470;0;0;0;0;0;0;6;0;1838;0;0;0;0;0;0;7;0;897;0;0;0;0;8;0;909;0;0;0;0;9;0;425;0;0;0;0
26.11.21;23:25:00;1;561;21373;0;2;0;964;0;0;0;0;3;0;514;0;0;0;0;4;0;754;0;0;0;0;5;0;2470;0;0;0;0;0;0;6;0;1838;0;0;0;0;0;0;7;0;897;0;0;0;0;8;0;909;0;0;0;0;9;0;425;0;0;0;0
26.11.21;23:20:00;1;346;21330;0;2;0;964;0;0;0;0;3;0;514;0;0;0;0;4;0;754;0;0;0;0;5;0;2470;0;0;0;0;0;0;6;0;1838;0;0;0;0;0;0;7;0;897;0;0;0;0;8;0;909;0;0;0;0;9;0;425;0;0;0;0
26.11.21;23:15:00;1;399;21300;0;2;0;964;0;0;0;0;3;0;514;0;0;0;0;4;0;754;0;0;0;0;5;0;2470;0;0;0;0;0;0;6;0;1838;0;0;0;0;0;0;7;0;897;0;0;0;0;8;0;909;0;0;0;0;9;0;425;0;0;0;0
26.11.21;23:10:00;1;388;21266;0;2;0;964;0;0;0;0;3;0;514;0;0;0;0;4;0;754;0;0;0;0;5;0;2470;0;0;0;0;0;0;6;0;1838;0;0;0;0;0;0;7;0;897;0;0;0;0;8;0;909;0;0;0;0;9;0;425;0;0;0;0
26.11.21;23:05:00;1;369;21235;0;2;0;964;0;0;0;0;3;0;514;0;0;0;0;4;0;754;0;0;0;0;5;0;2470;0;0;0;0;0;0;6;0;1838;0;0;0;0;0;0;7;0;897;0;0;0;0;8;0;909;0;0;0;0;9;0;425;0;0;0;0
26.11.21;23:00:00;1;420;21204;0;2;0;964;0;0;0;0;3;0;514;0;0;0;0;4;0;754;0;0;0;0;5;0;2470;0;0;0;0;0;0;6;0;1838;0;0;0;0;0;0;7;0;897;0;0;0;0;8;0;909;0;0;0;0;9;0;425;0;0;0;0
26.11.21;22:55:00;1;414;21169;0;2;0;964;0;0;0;0;3;0;514;0;0;0;0;4;0;754;0;0;0;0;5;0;2470;2;0;0;0;0;0;6;0;1838;2;0;0;0;0;0;7;0;897;0;0;0;0;8;0;909;0;0;0;0;9;0;425;0;0;0;0
26.11.21;22:50:00;1;404;21134;0;2;0;964;0;0;0;0;3;0;514;0;0;0;0;4;0;754;0;0;0;0;5;0;2470;2;0;0;0;0;0;6;0;1838;2;0;0;0;0;0;7;0;897;0;0;0;0;8;0;909;0;0;0;0;9;0;425;0;0;0;0
26.11.21;22:45:00;1;383;21102;0;2;0;964;0;0;0;0;3;0;514;0;0;0;0;4;0;754;0;0;0;0;5;0;2470;2;0;0;0;0;0;6;0;1838;2;0;0;0;0;0;7;0;897;0;0;0;0;8;0;909;0;0;0;0;9;0;425;0;0;0;0
26.11.21;22:40:00;1;393;21070;0;2;0;964;0;0;0;0;3;0;514;0;0;0;0;4;0;754;0;0;0;0;5;0;2470;2;0;0;0;0;0;6;0;1838;2;0;0;0;0;0;7;0;897;0;0;0;0;8;0;909;0;0;0;0;9;0;425;0;0;0;0
26.11.21;22:35:00;1;356;21037;0;2;0;964;0;0;0;0;3;0;514;0;0;0;0;4;0;754;0;0;0;0;5;0;2470;2;0;0;0;0;0;6;0;1838;2;0;0;0;0;0;7;0;897;0;0;0;0;8;0;909;0;0;0;0;9;0;425;0;0;0;0
26.11.21;22:30:00;1;336;21007;0;2;0;964;0;0;0;0;3;0;514;0;0;0;0;4;0;754;0;0;0;0;5;0;2470;2;0;0;0;0;0;6;0;1838;2;0;0;0;0;0;7;0;897;0;0;0;0;8;0;909;0;0;0;0;9;0;425;0;0;0;0
26.11.21;22:25:00;1;316;20979;0;2;0;964;0;0;0;0;3;0;514;0;0;0;0;4;0;754;0;0;0;0;5;0;2470;2;0;0;0;0;0;6;0;1838;2;0;0;0;0;0;7;0;897;0;0;0;0;8;0;909;0;0;0;0;9;0;425;0;0;0;0
26.11.21;22:20:00;1;316;20953;0;2;0;964;0;0;0;0;3;0;514;0;0;0;0;4;0;754;0;0;0;0;5;0;2470;2;0;0;0;0;0;6;0;1838;2;0;0;0;0;0;7;0;897;0;0;0;0;8;0;909;0;0;0;0;9;0;425;0;0;0;0
26.11.21;22:15:00;1;317;20926;0;2;0;964;0;0;0;0;3;0;514;0;0;0;0;4;0;754;0;0;0;0;5;0;2470;2;0;0;0;0;0;6;0;1838;2;0;0;0;0;0;7;0;897;0;0;0;0;8;0;909;0;0;0;0;9;0;425;0;0;0;0
26.11.21;22:10:00;1;328;20900;0;2;0;964;0;0;0;0;3;0;514;0;0;0;0;4;0;754;0;0;0;0;5;0;2470;2;0;0;0;0;0;6;0;1838;2;0;0;0;0;0;7;0;897;0;0;0;0;8;0;909;0;0;0;0;9;0;425;0;0;0;0
26.11.21;22:05:00;1;349;20872;0;2;0;964;0;0;0;0;3;0;514;0;0;0;0;4;0;754;0;0;0;0;5;0;2470;2;0;0;0;0;0;6;0;1838;2;0;0;0;0;0;7;0;897;0;0;0;0;8;0;909;0;0;0;0;9;0;425;0;0;0;0
26.11.21;22:00:00;1;404;20843;0;2;0;964;0;0;0;0;3;0;514;0;0;0;0;4;0;754;0;0;0;0;5;0;2470;2;0;0;0;0;0;6;0;1838;2;0;0;0;0;0;7;0;897;0;0;0;0;8;0;909;0;0;0;0;9;0;425;0;0;0;0
26.11.21;21:55:00;1;438;20809;0;2;0;964;0;0;0;0;3;0;514;0;0;0;0;4;0;754;0;0;0;0;5;0;2470;2;0;0;0;0;0;6;0;1838;2;0;0;0;0;0;7;0;897;0;0;0;0;8;0;909;0;0;0;0;9;0;425;0;0;0;0
26.11.21;21:50:00;1;399;20772;0;2;0;964;0;0;0;0;3;0;514;0;0;0;0;4;0;754;0;0;0;0;5;0;2470;2;0;0;0;0;0;6;0;1838;2;0;0;0;0;0;7;0;897;0;0;0;0;8;0;909;0;0;0;0;9;0;425;0;0;0;0
26.11.21;21:45:00;1;448;20739;0;2;0;964;0;0;0;0;3;0;514;0;0;0;0;4;0;754;0;0;0;0;5;0;2470;2;0;0;0;0;0;6;0;1838;2;0;0;0;0;0;7;0;897;0;0;0;0;8;0;909;0;0;0;0;9;0;425;0;0;0;0
26.11.21;21:40:00;1;451;20701;0;2;0;964;0;0;0;0;3;0;514;0;0;0;0;4;0;754;0;0;0;0;5;0;2470;2;0;0;0;0;0;6;0;1838;2;0;0;0;0;0;7;0;897;0;0;0;0;8;0;909;0;0;0;0;9;0;425;0;0;0;0
26.11.21;21:35:00;1;385;20664;0;2;0;964;0;0;0;0;3;0;514;0;0;0;0;4;0;754;0;0;0;0;5;0;2470;2;0;0;0;0;0;6;0;1838;2;0;0;0;0;0;7;0;897;0;0;0;0;8;0;909;0;0;0;0;9;0;425;0;0;0;0
26.11.21;21:30:00;1;319;20632;0;2;0;964;0;0;0;0;3;0;514;0;0;0;0;4;0;754;0;0;0;0;5;0;2470;2;0;0;0;0;0;6;0;1838;2;0;0;0;0;0;7;0;897;0;0;0;0;8;0;909;0;0;0;0;9;0;425;0;0;0;0
26.11.21;21:25:00;1;341;20605;0;2;0;964;0;0;0;0;3;0;514;0;0;0;0;4;0;754;0;0;0;0;5;0;2470;2;0;0;0;0;0;6;0;1838;2;0;0;0;0;0;7;0;897;0;0;0;0;8;0;909;0;0;0;0;9;0;425;0;0;0;0
26.11.21;21:20:00;1;349;20577;0;2;0;964;0;0;0;0;3;0;514;0;0;0;0;4;0;754;0;0;0;0;5;0;2470;2;0;0;0;0;0;6;0;1838;2;0;0;0;0;0;7;0;897;0;0;0;0;8;0;909;0;0;0;0;9;0;425;0;0;0;0
26.11.21;21:15:00;1;352;20547;0;2;0;964;0;0;0;0;3;0;514;0;0;0;0;4;0;754;0;0;0;0;5;0;2470;2;0;0;0;0;0;6;0;1838;2;0;0;0;0;0;7;0;897;0;0;0;0;8;0;909;0;0;0;0;9;0;425;0;0;0;0
26.11.21;21:10:00;1;338;20518;0;2;0;964;0;0;0;0;3;0;514;0;0;0;0;4;0;754;0;0;0;0;5;0;2470;2;0;0;0;0;0;6;0;1838;2;0;0;0;0;0;7;0;897;0;0;0;0;8;0;909;0;0;0;0;9;0;425;0;0;0;0
26.11.21;21:05:00;1;326;20490;0;2;0;964;0;0;0;0;3;0;514;0;0;0;0;4;0;754;0;0;0;0;5;0;2470;2;0;0;0;0;0;6;0;1838;2;0;0;0;0;0;7;0;897;0;0;0;0;8;0;909;0;0;0;0;9;0;425;0;0;0;0
26.11.21;21:00:00;1;408;20462;0;2;0;964;0;0;0;0;3;0;514;0;0;0;0;4;0;754;0;0;0;0;5;0;2470;2;0;0;0;0;0;6;0;1838;2;0;0;0;0;0;7;0;897;0;0;0;0;8;0;909;0;0;0;0;9;0;425;0;0;0;0
26.11.21;20:55:00;1;418;20428;0;2;0;964;0;0;0;0;3;0;514;0;0;0;0;4;0;754;0;0;0;0;5;0;2470;2;0;0;0;0;0;6;0;1838;2;0;0;0;0;0;7;0;897;0;0;0;0;8;0;909;0;0;0;0;9;0;425;0;0;0;0
26.11.21;20:50:00;1;421;20394;0;2;0;964;0;0;0;0;3;0;514;0;0;0;0;4;0;754;0;0;0;0;5;0;2470;2;0;0;0;0;0;6;0;1838;2;0;0;0;0;0;7;0;897;0;0;0;0;8;0;909;0;0;0;0;9;0;425;0;0;0;0
26.11.21;20:45:00;1;471;20359;0;2;0;964;0;0;0;0;3;0;514;0;0;0;0;4;0;754;0;0;0;0;5;0;2470;2;0;0;0;0;0;6;0;1838;2;0;0;0;0;0;7;0;897;0;0;0;0;8;0;909;0;0;0;0;9;0;425;0;0;0;0
26.11.21;20:40:00;1;441;20319;0;2;0;964;0;0;0;0;3;0;514;0;0;0;0;4;0;754;0;0;0;0;5;0;2470;2;0;0;0;0;0;6;0;1838;2;0;0;0;0;0;7;0;897;0;0;0;0;8;0;909;0;0;0;0;9;0;425;0;0;0;0
26.11.21;20:35:00;1;395;20282;0;2;0;964;0;0;0;0;3;0;514;0;0;0;0;4;0;754;0;0;0;0;5;0;2470;2;0;0;0;0;0;6;0;1838;2;0;0;0;0;0;7;0;897;0;0;0;0;8;0;909;0;0;0;0;9;0;425;0;0;0;0
26.11.21;20:30:00;1;421;20249;0;2;0;964;0;0;0;0;3;0;514;0;0;0;0;4;0;754;0;0;0;0;5;0;2470;2;0;0;0;0;0;6;0;1838;2;0;0;0;0;0;7;0;897;0;0;0;0;8;0;909;0;0;0;0;9;0;425;0;0;0;0
26.11.21;20:25:00;1;511;20213;0;2;0;964;0;0;0;0;3;0;514;0;0;0;0;4;0;754;0;0;0;0;5;0;2470;2;0;0;0;0;0;6;0;1838;2;0;0;0;0;0;7;0;897;0;0;0;0;8;0;909;0;0;0;0;9;0;425;0;0;0;0
26.11.21;20:20:00;1;470;20176;0;2;0;964;0;0;0;0;3;0;514;0;0;0;0;4;0;754;0;0;0;0;5;0;2470;2;0;0;0;0;0;6;0;1838;2;0;0;0;0;0;7;0;897;0;0;0;0;8;0;909;0;0;0;0;9;0;425;0;0;0;0
26.11.21;20:15:00;1;324;20137;0;2;0;964;0;0;0;0;3;0;514;0;0;0;0;4;0;754;0;0;0;0;5;0;2470;2;0;0;0;0;0;6;0;1838;2;0;0;0;0;0;7;0;897;0;0;0;0;8;0;909;0;0;0;0;9;0;425;0;0;0;0
26.11.21;20:10:00;1;317;20110;0;2;0;964;0;0;0;0;3;0;514;0;0;0;0;4;0;754;0;0;0;0;5;0;2470;2;0;0;0;0;0;6;0;1838;2;0;0;0;0;0;7;0;897;0;0;0;0;8;0;909;0;0;0;0;9;0;425;0;0;0;0
26.11.21;20:05:00;1;433;20083;0;2;0;964;0;0;0;0;3;0;514;0;0;0;0;4;0;754;0;0;0;0;5;0;2470;2;0;0;0;0;0;6;0;1838;2;0;0;0;0;0;7;0;897;0;0;0;0;8;0;909;0;0;0;0;9;0;425;0;0;0;0
26.11.21;20:00:00;1;395;20048;0;2;0;964;0;0;0;0;3;0;514;0;0;0;0;4;0;754;0;0;0;0;5;0;2470;2;0;0;0;0;0;6;0;1838;2;0;0;0;0;0;7;0;897;0;0;0;0;8;0;909;0;0;0;0;9;0;425;0;0;0;0
26.11.21;19:55:00;1;398;20015;0;2;0;964;0;0;0;0;3;0;514;0;0;0;0;4;0;754;0;0;0;0;5;0;2470;2;0;0;0;0;0;6;0;1838;2;0;0;0;0;0;7;0;897;0;0;0;0;8;0;909;0;0;0;0;9;0;425;0;0;0;0
26.11.21;19:50:00;1;375;19982;0;2;0;964;0;0;0;0;3;0;514;0;0;0;0;4;0;754;0;0;0;0;5;0;2470;2;0;0;0;0;0;6;0;1838;2;0;0;0;0;0;7;0;897;0;0;0;0;8;0;909;0;0;0;0;9;0;425;0;0;0;0
26.11.21;19:45:00;1;318;19950;0;2;0;964;0;0;0;0;3;0;514;0;0;0;0;4;0;754;0;0;0;0;5;0;2470;2;0;0;0;0;0;6;0;1838;2;0;0;0;0;0;7;0;897;0;0;0;0;8;0;909;0;0;0;0;9;0;425;0;0;0;0
26.11.21;19:40:00;1;353;19924;0;2;0;964;0;0;0;0;3;0;514;0;0;0;0;4;0;754;0;0;0;0;5;0;2470;2;0;0;0;0;0;6;0;1838;2;0;0;0;0;0;7;0;897;0;0;0;0;8;0;909;0;0;0;0;9;0;425;0;0;0;0
26.11.21;19:35:00;1;399;19894;0;2;0;964;0;0;0;0;3;0;514;0;0;0;0;4;0;754;0;0;0;0;5;0;2470;2;0;0;0;0;0;6;0;1838;2;0;0;0;0;0;7;0;897;0;0;0;0;8;0;909;0;0;0;0;9;0;425;0;0;0;0
26.11.21;19:30:00;1;572;19860;0;2;0;964;0;0;0;0;3;0;514;0;0;0;0;4;0;754;0;0;0;0;5;0;2470;2;0;0;0;0;0;6;0;1838;2;0;0;0;0;0;7;0;897;0;0;0;0;8;0;909;0;0;0;0;9;0;425;0;0;0;0
26.11.21;19:25:00;1;811;19805;0;2;0;964;0;0;0;0;3;0;514;0;0;0;0;4;0;754;0;0;0;0;5;0;2470;2;0;0;0;0;0;6;0;1838;2;0;0;0;0;0;7;0;897;0;0;0;0;8;0;909;0;0;0;0;9;0;425;0;0;0;0
26.11.21;19:20:00;1;765;19738;0;2;0;964;0;0;0;0;3;0;514;0;0;0;0;4;0;754;0;0;0;0;5;0;2470;2;0;0;0;0;0;6;0;1838;2;0;0;0;0;0;7;0;897;0;0;0;0;8;0;909;0;0;0;0;9;0;425;0;0;0;0
26.11.21;19:15:00;1;898;19674;0;2;0;964;0;0;0;0;3;0;514;0;0;0;0;4;0;754;0;0;0;0;5;0;2470;2;0;0;0;0;0;6;0;1838;2;0;0;0;0;0;7;0;897;0;0;0;0;8;0;909;0;0;0;0;9;0;425;0;0;0;0
26.11.21;19:10:00;1;1088;19597;0;2;0;964;0;0;0;0;3;0;514;0;0;0;0;4;0;754;0;0;0;0;5;0;2470;2;0;0;0;0;0;6;0;1838;2;0;0;0;0;0;7;0;897;0;0;0;0;8;0;909;0;0;0;0;9;0;425;0;0;0;0
26.11.21;19:05:00;1;1109;19506;0;2;0;964;0;0;0;0;3;0;514;0;0;0;0;4;0;754;0;0;0;0;5;0;2470;2;0;0;0;0;0;6;0;1838;2;0;0;0;0;0;7;0;897;0;0;0;0;8;0;909;0;0;0;0;9;0;425;0;0;0;0
26.11.21;19:00:00;1;1066;19413;0;2;0;964;0;0;0;0;3;0;514;0;0;0;0;4;0;754;0;0;0;0;5;0;2470;2;0;0;0;0;0;6;0;1838;2;0;0;0;0;0;7;0;897;0;0;0;0;8;0;909;0;0;0;0;9;0;425;0;0;0;0
26.11.21;18:55:00;1;1035;19324;0;2;0;964;0;0;0;0;3;0;514;0;0;0;0;4;0;754;0;0;0;0;5;0;2470;2;0;0;0;0;0;6;0;1838;2;0;0;0;0;0;7;0;897;0;0;0;0;8;0;909;0;0;0;0;9;0;425;0;0;0;0
26.11.21;18:50:00;1;1022;19238;0;2;0;964;0;0;0;0;3;0;514;0;0;0;0;4;0;754;0;0;0;0;5;0;2470;2;0;0;0;0;0;6;0;1838;2;0;0;0;0;0;7;0;897;0;0;0;0;8;0;909;0;0;0;0;9;0;425;0;0;0;0
26.11.21;18:45:00;1;1016;19153;0;2;0;964;0;0;0;0;3;0;514;0;0;0;0;4;0;754;0;0;0;0;5;0;2470;2;0;0;0;0;0;6;0;1838;2;0;0;0;0;0;7;0;897;0;0;0;0;8;0;909;0;0;0;0;9;0;425;0;0;0;0
26.11.21;18:40:00;1;1205;19066;0;2;0;964;0;0;0;0;3;0;514;0;0;0;0;4;0;754;0;0;0;0;5;0;2470;2;0;0;0;0;0;6;0;1838;2;0;0;0;0;0;7;0;897;0;0;0;0;8;0;909;0;0;0;0;9;0;425;0;0;0;0
26.11.21;18:35:00;1;1190;18965;0;2;0;964;0;0;0;0;3;0;514;0;0;0;0;4;0;754;0;0;0;0;5;0;2470;2;0;0;0;0;0;6;0;1838;2;0;0;0;0;0;7;0;897;0;0;0;0;8;0;909;0;0;0;0;9;0;425;0;0;0;0
26.11.21;18:30:00;1;1017;18868;0;2;0;964;0;0;0;0;3;0;514;0;0;0;0;4;0;754;0;0;0;0;5;0;2470;2;0;0;0;0;0;6;0;1838;2;0;0;0;0;0;7;0;897;0;0;0;0;8;0;909;0;0;0;0;9;0;425;0;0;0;0
26.11.21;18:25:00;1;1031;18783;0;2;0;964;0;0;0;0;3;0;514;0;0;0;0;4;0;754;0;0;0;0;5;0;2470;2;0;0;0;0;0;6;0;1838;2;0;0;0;0;0;7;0;897;0;0;0;0;8;0;909;0;0;0;0;9;0;425;0;0;0;0
26.11.21;18:20:00;1;1038;18696;0;2;0;964;0;0;0;0;3;0;514;0;0;0;0;4;0;754;0;0;0;0;5;0;2470;2;0;0;0;0;0;6;0;1838;2;0;0;0;0;0;7;0;897;0;0;0;0;8;0;909;0;0;0;0;9;0;425;0;0;0;0
26.11.21;18:15:00;1;1083;18607;0;2;0;964;0;0;0;0;3;0;514;0;0;0;0;4;0;754;0;0;0;0;5;0;2470;2;0;0;0;0;0;6;0;1838;2;0;0;0;0;0;7;0;897;0;0;0;0;8;0;909;0;0;0;0;9;0;425;0;0;0;0
26.11.21;18:10:00;1;1115;18517;0;2;0;964;0;0;0;0;3;0;514;0;0;0;0;4;0;754;0;0;0;0;5;0;2470;2;0;0;0;0;0;6;0;1838;2;0;0;0;0;0;7;0;897;0;0;0;0;8;0;909;0;0;0;0;9;0;425;0;0;0;0
26.11.21;18:05:00;1;1303;18425;0;2;0;964;0;0;0;0;3;0;514;0;0;0;0;4;0;754;0;0;0;0;5;0;2470;2;0;0;0;0;0;6;0;1838;2;0;0;0;0;0;7;0;897;0;0;0;0;8;0;909;0;0;0;0;9;0;425;0;0;0;0
26.11.21;18:00:00;1;1103;18309;0;2;0;964;0;0;0;0;3;0;514;0;0;0;0;4;0;754;0;0;0;0;5;0;2470;2;0;0;0;0;0;6;0;1838;2;0;0;0;0;0;7;0;897;0;0;0;0;8;0;909;0;0;0;0;9;0;425;0;0;0;0
26.11.21;17:55:00;1;1222;18217;0;2;0;964;0;0;0;0;3;0;514;0;0;0;0;4;0;754;0;0;0;0;5;0;2470;2;0;0;0;0;0;6;0;1838;2;0;0;0;0;0;7;0;897;0;0;0;0;8;0;909;0;0;0;0;9;0;425;0;0;0;0
26.11.21;17:50:00;1;1239;18094;0;2;0;964;0;0;0;0;3;0;514;0;0;0;0;4;0;754;0;0;0;0;5;0;2470;2;0;0;0;0;0;6;0;1838;2;0;0;0;0;0;7;0;897;0;0;0;0;8;0;909;0;0;0;0;9;0;425;0;0;0;0
26.11.21;17:45:00;1;3298;17935;0;2;0;964;0;0;0;0;3;0;514;0;0;0;0;4;0;754;0;0;0;0;5;0;2470;2;0;0;0;0;0;6;0;1838;2;0;0;0;0;0;7;0;897;0;0;0;0;8;0;909;0;0;0;0;9;0;425;0;0;0;0
26.11.21;17:40:00;1;2017;17757;0;2;0;964;0;0;0;0;3;0;514;0;0;0;0;4;0;754;0;0;0;0;5;0;2470;2;0;0;0;0;0;6;0;1838;2;0;0;0;0;0;7;0;897;0;0;0;0;8;0;909;0;0;0;0;9;0;425;0;0;0;0
26.11.21;17:35:00;1;986;17581;0;2;0;964;0;0;0;0;3;0;514;0;0;0;0;4;0;754;0;0;0;0;5;0;2470;2;0;0;0;0;0;6;0;1838;2;0;0;0;0;0;7;0;897;0;0;0;0;8;0;909;0;0;0;0;9;0;425;0;0;0;0
26.11.21;17:30:00;1;1777;17499;0;2;0;964;0;0;0;0;3;0;514;0;0;0;0;4;0;754;0;0;0;0;5;0;2470;2;0;0;0;0;0;6;0;1838;2;0;0;0;0;0;7;0;897;0;0;0;0;8;0;909;0;0;0;0;9;0;425;0;0;0;0
26.11.21;17:25:00;1;2581;17372;0;2;0;964;0;0;0;0;3;0;514;0;0;0;0;4;0;754;0;0;0;0;5;0;2470;2;0;0;0;0;0;6;0;1838;2;0;0;0;0;0;7;0;897;0;0;0;0;8;0;909;0;0;0;0;9;0;425;0;0;0;0
26.11.21;17:20:00;1;3289;17197;0;2;0;964;0;0;0;0;3;0;514;0;0;0;0;4;0;754;0;0;0;0;5;0;2470;2;0;0;0;0;0;6;0;1838;2;0;0;0;0;0;7;0;897;0;0;0;0;8;0;909;0;0;0;0;9;0;425;0;0;0;0
26.11.21;17:15:00;1;3092;16895;0;2;0;964;0;0;0;0;3;0;514;0;0;0;0;4;0;754;0;0;0;0;5;0;2470;2;0;0;0;0;0;6;0;1838;2;0;0;0;0;0;7;0;897;0;0;0;0;8;0;909;0;0;0;0;9;0;425;0;0;0;0
26.11.21;17:10:00;1;3012;16622;0;2;0;964;0;0;0;0;3;0;514;0;0;0;0;4;0;754;0;0;0;0;5;0;2470;2;0;0;0;0;0;6;0;1838;2;0;0;0;0;0;7;0;897;0;0;0;0;8;0;909;0;0;0;0;9;0;425;0;0;0;0
26.11.21;17:05:00;1;3076;16335;0;2;0;964;0;0;0;0;3;0;514;0;0;0;0;4;0;754;0;0;0;0;5;0;2470;2;0;0;0;0;0;6;0;1838;2;0;0;0;0;0;7;0;897;0;0;0;0;8;0;909;0;0;0;0;9;0;425;0;0;0;0
26.11.21;17:00:00;1;4456;16074;0;2;0;964;0;0;0;0;3;0;514;0;0;0;0;4;0;754;0;0;0;0;5;0;2470;2;0;0;0;0;0;6;0;1838;2;0;0;0;0;0;7;0;897;0;0;0;0;8;0;909;0;0;0;0;9;0;425;0;0;0;0
26.11.21;16:55:00;1;3684;15736;0;2;0;964;0;0;0;0;3;0;514;0;0;0;0;4;0;754;0;0;0;0;5;0;2470;2;0;0;0;0;0;6;0;1838;2;0;0;0;0;0;7;0;897;0;0;0;0;8;0;909;0;0;0;0;9;0;425;0;0;0;0
26.11.21;16:50:00;1;3088;15415;0;2;0;964;0;0;0;0;3;0;514;0;0;0;0;4;0;754;0;0;0;0;5;0;2470;2;0;0;0;0;0;6;0;1838;2;0;0;0;0;0;7;0;897;0;0;0;0;8;0;909;0;0;0;0;9;0;425;0;0;0;0
26.11.21;16:45:00;1;4103;15119;0;2;0;964;0;0;0;0;3;0;514;0;0;0;0;4;0;754;0;0;0;0;5;0;2470;2;0;0;0;0;0;6;0;1838;2;0;0;0;0;0;7;0;897;0;0;0;0;8;0;909;0;0;0;0;9;0;425;0;0;0;0
26.11.21;16:40:00;1;3234;14799;0;2;0;964;0;0;0;0;3;0;514;0;0;0;0;4;0;754;0;0;0;0;5;0;2470;2;0;0;0;0;0;6;0;1838;2;0;0;0;0;0;7;0;897;0;0;0;0;8;0;909;0;0;0;0;9;0;425;0;0;0;0
26.11.21;16:35:00;1;3223;14518;0;2;0;964;0;0;0;0;3;0;514;0;0;0;0;4;0;754;0;0;0;0;5;0;2470;2;0;0;0;0;0;6;0;1838;2;0;0;0;0;0;7;0;897;0;0;0;0;8;0;909;0;0;0;0;9;0;425;0;0;0;0
26.11.21;16:30:00;1;3104;14251;0;2;0;964;0;0;0;0;3;0;514;0;0;157;6;4;0;754;0;0;0;0;5;0;2470;2;0;0;0;0;0;6;0;1838;2;0;0;0;0;0;7;0;897;0;0;0;0;8;0;909;0;0;0;0;9;0;425;0;0;0;0
26.11.21;16:25:00;1;3109;13971;0;2;0;964;6;0;297;8;3;0;514;6;0;342;11;4;0;754;2;0;75;5;5;0;2470;2;0;0;39;38;7;6;0;1838;2;0;0;0;0;0;7;0;897;0;0;0;0;8;0;909;0;0;0;0;9;0;425;0;0;40;1
26.11.21;16:20:00;1;3066;13704;0;2;0;964;6;0;353;8;3;0;514;6;1;423;11;4;0;754;1;0;137;5;5;0;2470;26;0;0;374;372;21;6;0;1838;2;0;0;398;395;16;7;0;897;6;0;274;11;8;0;909;6;0;280;11;9;0;425;6;0;299;7
26.11.21;16:15:00;1;3548;13442;0;2;0;964;6;0;385;8;3;0;514;4;3;449;11;4;0;754;1;0;193;6;5;10;2470;1;0;2;409;619;21;6;5;1838;1;0;1;554;548;20;7;0;897;6;0;382;11;8;0;909;6;0;390;11;9;0;425;6;0;403;7
26.11.21;16:10:00;1;2880;13143;0;2;0;964;6;0;387;8;3;1;514;3;2;466;11;4;0;754;1;0;196;6;5;10;2469;26;0;1;413;641;21;6;12;1837;1;0;1;555;549;20;7;0;897;6;0;383;11;8;0;909;6;0;379;11;9;0;425;6;0;418;7
26.11.21;16:05:00;1;3273;12903;0;2;0;964;6;0;396;8;3;0;514;6;3;473;11;4;0;754;1;0;202;6;5;16;2469;26;2;3;415;655;22;6;0;1837;26;0;0;600;579;20;7;0;897;6;0;417;11;8;0;909;6;0;424;11;9;0;425;4;1;438;7
26.11.21;16:00:00;1;4972;12599;0;2;0;964;6;0;401;8;3;0;513;6;3;462;11;4;0;754;1;0;222;6;5;10;2468;26;2;2;422;670;22;6;8;1836;4;0;2;588;572;20;7;0;897;6;0;428;11;8;0;909;6;0;431;11;9;2;425;3;1;437;7
26.11.21;15:55:00;1;4960;12187;0;2;0;964;6;0;396;8;3;1;513;6;3;488;11;4;0;754;1;0;214;6;5;35;2467;26;0;2;414;655;22;6;8;1836;4;0;2;577;565;20;7;0;897;6;0;414;11;8;0;909;6;0;413;11;9;0;424;6;0;452;7
26.11.21;15:50:00;1;5000;11637;0;2;0;964;6;0;388;8;3;0;513;6;2;472;11;4;0;754;1;0;197;6;5;0;2466;26;0;0;426;665;22;6;6;1835;4;0;1;550;545;21;7;0;897;6;0;399;11;8;0;909;6;0;408;11;9;0;424;6;0;423;7
26.11.21;15:45:00;1;4886;11042;0;2;0;964;6;0;382;8;3;0;513;4;1;457;11;4;0;754;1;0;185;7;5;6;2465;26;0;0;411;632;22;6;0;1835;23;0;0;574;557;21;7;0;897;6;0;375;11;8;0;909;6;0;383;11;9;0;424;6;0;410;7
26.11.21;15:40:00;1;4819;10635;0;2;0;964;6;0;382;8;3;1;513;3;2;456;12;4;0;754;1;0;185;7;5;0;2465;23;0;2;420;641;22;6;0;1835;23;0;0;557;552;21;7;0;897;6;0;371;12;8;0;909;6;0;379;11;9;0;424;6;0;405;7
26.11.21;15:35:00;1;4914;10232;0;2;0;964;6;0;389;8;3;0;513;6;2;478;12;4;0;754;1;0;199;7;5;6;2464;4;0;0;417;654;23;6;6;1835;26;0;1;566;557;21;7;0;897;6;0;393;12;8;0;909;6;0;401;11;9;0;424;6;0;420;8
26.11.21;15:30:00;1;5000;9770;0;2;0;964;6;0;399;9;3;0;513;6;3;487;12;4;0;754;1;0;218;7;5;9;2464;4;0;0;422;670;23;6;0;1834;23;0;0;596;580;21;7;0;897;3;0;415;12;8;0;909;4;0;421;11;9;0;424;6;0;458;8
26.11.21;15:25:00;1;4325;9182;0;2;0;964;6;0;410;9;3;1;513;6;3;505;12;4;0;754;3;0;210;8;5;75;2463;4;15;21;378;597;24;6;10;1833;23;0;3;597;578;22;7;0;897;6;1;445;12;8;2;909;3;2;431;11;9;1;424;3;2;469;8
26.11.21;15:20:00;1;1037;8824;0;2;3;964;6;7;406;9;3;0;513;6;5;515;12;4;0;754;3;0;208;8;5;101;2456;4;29;31;377;597;24;6;76;1832;4;0;26;532;514;23;7;2;897;6;5;463;12;8;2;909;6;5;464;12;9;2;424;6;3;513;8
26.11.21;15:15:00;1;1038;8738;0;2;3;963;6;6;411;9;3;0;513;6;5;523;12;4;0;754;3;0;224;8;5;109;2448;4;34;32;377;597;24;6;82;1826;4;0;27;532;514;23;7;2;897;6;4;462;12;8;2;908;6;4;476;12;9;0;424;6;3;522;8
26.11.21;15:10:00;1;1066;8636;0;2;3;963;3;7;413;9;3;0;513;3;6;523;12;4;1;754;3;1;199;8;5;120;2439;4;43;39;377;597;24;6;90;1819;4;0;31;532;514;23;7;4;897;6;10;445;12;8;2;908;6;5;475;12;9;2;424;6;4;523;8
26.11.21;15:05:00;1;1049;8547;0;2;16;963;6;23;409;9;3;2;513;6;8;539;12;4;12;754;3;12;199;8;5;156;2428;4;60;56;377;597;24;6;117;1811;4;17;50;532;514;23;7;1;896;6;7;495;12;8;3;908;6;7;496;12;9;1;424;6;4;544;8
26.11.21;15:00:00;1;974;8461;0;2;64;961;4;86;369;10;3;7;513;6;13;545;12;4;32;753;3;33;199;8;5;194;2415;4;89;73;378;597;24;6;147;1801;4;30;64;532;514;23;7;45;896;4;74;383;13;8;37;908;6;62;421;12;9;0;424;6;0;581;8
26.11.21;14:55:00;1;926;8380;0;2;81;956;4;103;364;10;3;13;512;6;23;526;12;4;46;750;3;47;199;8;5;222;2399;4;105;92;377;597;24;6;167;1789;4;42;73;532;513;23;7;51;893;4;94;451;12;8;59;905;4;93;453;12;9;10;424;3;18;539;8
26.11.21;14:50:00;1;877;8303;0;2;89;949;4;111;375;10;3;8;511;6;15;549;12;4;52;746;3;54;199;8;5;239;2380;4;105;99;377;597;24;6;181;1775;4;44;84;532;514;23;7;64;888;4;98;431;12;8;56;900;4;97;468;12;9;7;423;6;12;561;8
26.11.21;14:45:00;1;893;8230;0;2;95;942;4;118;366;10;3;8;510;6;13;559;12;4;62;742;3;65;199;8;5;251;2360;4;111;101;377;597;24;6;189;1760;4;50;88;532;513;23;7;68;883;4;108;434;12;8;78;895;4;109;442;12;9;6;422;6;10;567;8
26.11.21;14:40:00;1;921;8155;0;2;83;934;4;104;365;10;3;10;510;4;16;550;12;4;44;737;3;46;199;8;5;221;2339;4;100;90;377;597;24;6;171;1744;4;45;73;532;514;23;7;71;877;4;94;379;12;8;63;889;4;95;459;12;9;7;421;6;11;557;8
26.11.21;14:35:00;1;965;8078;0;2;81;927;4;102;356;10;3;12;509;6;23;526;12;4;41;733;3;43;199;8;5;219;2321;4;102;87;377;597;24;6;166;1730;4;41;75;532;513;23;7;55;871;4;81;351;12;8;57;883;4;84;392;12;9;4;421;6;8;547;8
26.11.21;14:30:00;1;1219;7997;0;2;67;920;4;89;366;10;3;7;508;6;13;542;12;4;29;730;3;30;199;8;5;194;2302;4;84;72;377;597;24;6;148;1716;4;31;64;532;514;23;7;46;867;4;74;358;12;8;45;879;4;76;364;12;9;4;421;6;8;552;8
26.11.21;14:25:00;1;938;7902;0;2;60;915;4;85;369;10;3;5;507;6;9;547;12;4;21;727;3;22;199;8;5;183;2286;4;78;69;377;597;24;6;139;1703;4;29;63;532;514;22;7;5;863;6;10;502;12;8;33;875;4;56;394;12;9;5;420;4;12;528;8
26.11.21;14:20:00;1;976;7824;0;2;12;910;4;16;421;9;3;3;507;6;11;536;12;4;33;725;3;34;199;8;5;169;2271;4;69;58;377;597;24;6;129;1692;4;21;57;532;514;22;7;5;862;6;9;491;12;8;11;872;6;22;461;12;9;2;420;6;6;542;8
26.11.21;14:15:00;1;997;7742;0;2;25;908;4;36;397;10;3;4;507;6;9;543;12;4;17;723;3;18;199;8;5;165;2257;4;65;60;377;597;24;6;127;1681;4;20;55;532;514;22;7;4;862;6;9;496;13;8;6;871;6;7;496;12;9;4;419;6;11;519;8
26.11.21;14:10:00;1;1162;7659;0;2;39;906;6;57;373;10;3;4;506;4;9;534;12;4;11;721;3;12;199;8;5;163;2243;4;61;60;377;597;24;6;125;1670;4;20;54;532;514;22;7;2;862;6;7;485;13;8;3;871;6;8;486;12;9;1;419;6;10;503;8
26.11.21;14:05:00;1;650;7579;0;2;8;903;4;12;422;10;3;7;506;3;17;517;12;4;14;720;3;14;199;8;5;160;2229;4;60;57;377;597;24;6;120;1660;4;15;52;532;514;22;7;2;862;4;7;482;13;8;5;871;4;7;467;12;9;1;419;6;4;538;9
26.11.21;14:00:00;1;680;7527;0;2;53;902;4;75;361;10;3;11;505;6;22;504;13;4;21;719;3;22;199;8;5;180;2216;4;71;66;377;597;24;6;137;1650;4;22;58;532;514;22;7;4;861;3;9;490;13;8;12;870;3;20;461;13;9;2;419;6;6;542;9
26.11.21;13:55:00;1;457;7485;0;2;71;898;4;93;374;10;3;6;504;6;11;550;13;4;32;717;3;34;198;8;5;212;2201;4;95;79;378;597;24;6;161;1638;4;36;70;532;513;22;7;46;861;4;76;370;13;8;52;869;4;82;393;13;9;7;419;4;14;526;9
26.11.21;13:50:00;1;442;7446;0;2;81;892;4;104;374;10;3;8;504;6;14;549;13;4;42;714;3;44;198;8;5;231;2183;4;109;92;377;597;24;6;176;1624;4;41;76;532;513;22;7;41;857;4;89;427;13;8;46;864;4;82;436;13;9;11;418;3;19;522;9
26.11.21;13:45:00;1;395;7409;0;2;99;885;4;123;369;10;3;9;503;6;14;561;13;4;58;711;3;61;198;8;5;262;2163;4;116;104;377;597;24;6;201;1609;4;52;88;532;513;22;7;73;854;4;98;402;13;8;77;861;4;102;401;13;9;7;417;6;10;553;9
26.11.21;13:40:00;1;395;7376;0;2;70;877;4;93;371;10;3;0;502;6;0;575;13;4;25;706;3;26;198;8;5;207;2142;4;90;78;377;597;24;6;161;1593;4;37;66;532;513;22;7;50;848;4;73;351;13;8;49;854;4;74;362;13;9;8;416;6;16;515;9
26.11.21;13:35:00;1;626;7343;0;2;76;871;4;96;363;11;3;12;502;3;22;527;13;4;28;704;3;29;198;8;5;215;2124;4;99;82;377;597;24;6;164;1580;4;39;72;532;514;22;7;55;843;4;73;352;13;8;54;850;4;74;356;13;9;4;416;6;7;556;9
26.11.21;13:30:00;1;410;7291;0;2;91;864;4;112;371;11;3;12;501;6;20;563;13;4;47;701;3;49;198;9;5;256;2107;4;120;100;378;597;24;6;192;1566;4;54;85;532;514;22;7;54;839;4;93;435;13;8;63;846;4;97;432;13;9;6;415;6;10;556;9
26.11.21;13:25:00;1;414;7257;0;2;180;857;4;209;388;11;3;109;500;4;145;496;14;4;140;697;5;146;229;9;5;432;2083;4;207;181;394;611;24;6;318;1549;4;117;149;532;514;22;7;150;834;4;192;462;13;8;156;840;4;193;446;13;9;84;415;4;109;478;10
26.11.21;13:20:00;1;431;7223;0;2;213;842;4;241;390;11;3;126;491;4;166;521;14;4;161;686;5;167;235;9;5;502;2047;4;247;206;412;645;24;6;355;1522;4;133;167;532;514;22;7;194;821;4;227;469;13;8;201;827;4;231;463;13;9;107;408;4;128;502;10
26.11.21;13:15:00;1;398;7187;0;2;204;824;4;231;386;11;3;119;480;4;161;526;14;4;162;672;5;169;233;9;5;452;2005;4;226;179;406;597;24;6;334;1492;4;125;157;532;514;22;7;199;805;4;236;451;13;8;206;810;4;240;460;13;9;111;399;4;136;507;10